Moline, IL

9:44 AM CDT on June 28, 2017 (GMT -0500)
Quad-City International

Weather History for KMLI - August, 2013

Change the Weather History Date:

Sunday, August 11, 2013

  Actual Average Record
Temperature  
Mean Temperature 70 °F 74 °F  
Max Temperature 83 °F 84 °F 98 °F (1941)
Min Temperature 57 °F 64 °F 48 °F (1968)
Degree Days  
Heating Degree Days 0 0  
Month to date heating degree days 0 0  
Since 1 June heating degree days 34 21  
Since 1 July heating degree days 7 2  
Cooling Degree Days 5 9  
Month to date cooling degree days 75 106  
Year to date cooling degree days 626 720  
Since 1 June cooling degree days 536 644  
Growing Degree Days 20 (Base 50)    
Moisture  
Dew Point 60 °F    
Average Humidity 72    
Maximum Humidity 93    
Minimum Humidity 51    
Precipitation  
Precipitation 0.00 in 0.15 in 4.39 in (1949)
Month to date precipitation 0.76 1.55  
Year to date precipitation 32.61 24.19  
Snow  
Snow 0.00 in 0.00 in - ()
Month to date snowfall 0.0 0.0  
Since 1 June snowfall 0.0 0.0  
Since 1 July snowfall 0.0 0.0  
Snow Depth 0.00 in    
Sea Level Pressure  
Sea Level Pressure 30.09 in    
Wind  
Wind Speed 5 mph (SSW)    
Max Wind Speed 14 mph    
Max Gust Speed 21 mph    
Visibility 10 miles    
Events      
T = Trace of Precipitation, MM = Missing Value Source: NWS Daily Summary

Daily Weather History Graph

Daily Weather History Graph

Search for Another Location

Airport or City:

Trip Planner

Search our weather history database for the weather conditions in past years. The results will help you decide how hot, cold, wet, or windy it might be!

Date:

Astronomy

Aug. 11, 2013 Rise Set
Actual Time 6:07 AM CDT 8:06 PM CDT
Civil Twilight 5:37 AM CDT 8:36 PM CDT
Nautical Twilight 5:00 AM CDT 9:13 PM CDT
Astronomical Twilight 4:20 AM CDT 9:53 PM CDT
Moon 10:59 AM CDT (8/11) 10:17 PM CDT (8/11)
Length of Visible Light 14h 59m
Length of Day
13h 59m
Waxing Crescent, 22% of the Moon is Illuminated
Aug 11
Waxing Crescent
Aug 14
First Quarter
Aug 20
Full
Aug 28
Last Quarter
Sep 5
New

Hourly Weather History & Observations

Time (CDT) Temp. Heat Index Dew Point Humidity Pressure Visibility Wind Dir Wind Speed Gust Speed Precip Events Conditions
12:52 AM 59.0 °F - 57.0 °F 93% 30.15 in 10.0 mi Calm Calm - N/A   Clear
1:52 AM 59.0 °F - 55.9 °F 90% 30.14 in 10.0 mi Calm Calm - N/A   Clear
2:52 AM 59.0 °F - 55.9 °F 90% 30.14 in 10.0 mi Calm Calm - N/A   Mostly Cloudy
3:52 AM 59.0 °F - 55.9 °F 90% 30.14 in 10.0 mi Calm Calm - N/A   Clear
4:52 AM 57.9 °F - 55.0 °F 90% 30.11 in 10.0 mi SE 4.6 mph - N/A   Clear
5:52 AM 59.0 °F - 55.0 °F 87% 30.12 in 10.0 mi Calm Calm - N/A   Clear
6:52 AM 60.1 °F - 55.9 °F 86% 30.12 in 10.0 mi Calm Calm - N/A   Clear
7:52 AM 66.0 °F - 57.0 °F 73% 30.13 in 10.0 mi Calm Calm - N/A   Mostly Cloudy
8:52 AM 69.1 °F - 61.0 °F 75% 30.13 in 10.0 mi SSW 3.5 mph - N/A   Scattered Clouds
9:52 AM 75.0 °F - 61.0 °F 62% 30.12 in 10.0 mi SW 6.9 mph - N/A   Mostly Cloudy
10:52 AM 75.9 °F - 60.1 °F 58% 30.12 in 10.0 mi WSW 6.9 mph - N/A   Overcast
11:52 AM 79.0 °F - 62.1 °F 56% 30.11 in 10.0 mi SSW 5.8 mph - N/A   Mostly Cloudy
12:52 PM 81.0 °F 81.9 °F 62.1 °F 52% 30.11 in 10.0 mi SW 8.1 mph - N/A   Clear
1:52 PM 81.0 °F 81.9 °F 62.1 °F 52% 30.09 in 10.0 mi SW 11.5 mph - N/A   Clear
2:52 PM 81.0 °F 82.2 °F 63.0 °F 54% 30.07 in 10.0 mi SSW 10.4 mph - N/A   Clear
3:52 PM 82.0 °F 83.1 °F 63.0 °F 52% 30.07 in 10.0 mi WSW 10.4 mph - N/A   Clear
4:52 PM 81.0 °F 82.2 °F 63.0 °F 54% 30.06 in 10.0 mi SW 9.2 mph - N/A   Clear
5:52 PM 82.0 °F 83.4 °F 64.0 °F 54% 30.04 in 10.0 mi SW 5.8 mph - N/A   Clear
6:52 PM 79.0 °F - 64.0 °F 60% 30.03 in 10.0 mi SSW 5.8 mph - N/A   Clear
7:52 PM 75.9 °F - 64.9 °F 69% 30.03 in 10.0 mi South 3.5 mph - N/A   Clear
8:52 PM 73.9 °F - 64.0 °F 71% 30.02 in 10.0 mi South 5.8 mph - N/A   Clear
9:52 PM 72.0 °F - 64.0 °F 76% 30.04 in 10.0 mi Calm Calm - N/A   Mostly Cloudy
10:52 PM 72.0 °F - 64.0 °F 76% 30.01 in 10.0 mi South 6.9 mph - N/A   Partly Cloudy
11:52 PM 72.0 °F - 63.0 °F 73% 30.02 in 10.0 mi SSW 6.9 mph - N/A   Clear